#timestamp,LO_Frequency,Hit,StdDev 
1504810815.4,286047001.6,N,1.1
1504810835.3,286046999.7,N,1.1
1504810855.1,286047002.7,N,1.1
1504810875.8,286047002.0,N,1.1
1504810895.7,286047003.8,Y,0.0
1504810915.5,286047001.8,P,0.4
1504810935.4,286046999.8,N,0.8
1504810955.2,286047000.1,N,0.8
1504810975.0,286047000.1,N,0.7
1504810976.0,286047000.1,N,0.7
1504810995.8,286047000.2,N,0.7
1504811015.6,286047002.8,Y,0.0
1504811035.5,286047000.9,P,0.2
1504811055.3,286046998.5,P,1.0
1504811075.1,286047000.4,N,0.9
1504811095.9,286047000.5,N,0.8
1504811115.7,286047000.4,N,0.8
1504811135.6,286047001.2,N,0.8
1504811155.4,286046998.2,N,1.0
1504811175.2,286047000.4,N,1.0
1504811195.1,286047000.3,N,0.9
1504811196.0,286047000.3,N,0.9
1504811215.8,286047000.0,N,0.8
1504811235.7,286047000.2,N,0.8
1504811255.5,286047002.8,Y,0.0
1504811275.3,286047001.0,P,0.4
1504811295.2,286046999.8,N,0.5
1504811315.0,286047000.0,N,0.5
1504811315.9,286047000.0,N,0.4
1504811335.7,286046999.9,N,0.4
1504811355.6,286047002.5,Y,0.0
1504811375.4,286047002.2,P,1.0
1504811395.3,286047002.6,N,1.1
1504811415.1,286047000.2,N,1.1
1504811435.8,286047000.4,N,1.1
1504811455.7,286047000.3,N,1.0
1504811475.5,286047002.7,N,1.1
1504811495.4,286047002.2,N,1.1
1504811515.2,286047000.2,N,1.1
1504811535.0,286047002.8,N,1.1
1504811535.9,286047002.8,N,1.2
1504811555.8,286047002.1,N,1.1
1504811575.6,286047002.2,N,1.1
1504811595.5,286047000.2,N,1.1
1504811615.3,286046999.7,N,1.2
1504811635.1,286046999.8,N,1.2
1504811655.9,286047000.1,N,1.2
1504811675.7,286047000.6,N,1.2
1504811695.5,286047001.9,N,1.1
1504811715.4,286047001.6,N,1.1
1504811735.2,286047004.0,Y,0.0
1504811755.1,286047002.3,P,0.5
1504811756.0,286047002.3,P,0.5
1504811775.8,286047001.5,N,0.5
1504811795.7,286047004.0,Y,0.0
1504811815.5,286047002.6,P,0.4
1504811835.3,286047002.3,P,0.3
1504811855.2,286047002.4,P,0.3
1504811875.0,286047002.5,Y,0.0
1504811875.9,286047002.5,P,0.1
1504811895.8,286046998.1,P,2.0
1504811915.6,286046999.4,N,1.9
1504811935.4,286046997.0,N,2.2
1504811955.3,286046999.6,N,2.0
1504811975.1,286046999.1,N,1.9
1504811995.8,286046999.5,N,1.8
1504812015.7,286046999.2,N,1.7
1504812035.5,286046999.1,N,1.6
1504812055.4,286046996.9,N,1.7
1504812075.2,286046997.9,N,1.7
1504812095.0,286046998.0,N,1.6
1504812095.9,286046998.0,N,1.6
1504812115.8,286046997.5,N,1.6
1504812135.6,286046997.6,N,1.6
1504812155.4,286046995.7,N,1.7
1504812175.3,286046995.9,N,1.8
1504812195.1,286046993.7,Y,0.0
1504812215.9,286046995.2,P,1.7
1504812235.7,286046995.3,N,1.5
1504812255.5,286046995.6,N,1.4
1504812275.4,286046996.2,N,1.2
1504812295.2,286046997.9,N,1.3
1504812315.1,286046995.5,Y,0.0
1504812316.0,286046995.5,P,0.5
1504812335.8,286046998.5,P,1.3
1504812355.6,286046998.6,N,1.3
1504812375.5,286047001.2,N,2.0
1504812395.3,286046999.6,N,1.9
1504812415.1,286046996.6,N,1.9
1504812435.9,286046997.3,N,1.7
1504812455.7,286046997.9,N,1.6
1504812475.6,286046997.6,N,1.6
1504812495.4,286046995.4,N,1.7
1504812515.2,286046998.0,N,1.6
1504812535.1,286046997.6,N,1.5
1504812536.0,286046997.6,N,1.5
1504812555.8,286046997.9,N,1.4
1504812575.7,286046994.9,Y,0.0
1504812595.5,286046999.5,P,0.9
1504812615.4,286046997.5,N,0.9
1504812635.2,286046995.0,P,1.6
1504812655.0,286046995.8,N,1.6
1504812655.9,286046995.8,N,1.5
1504812675.8,286046995.6,N,1.5
1504812695.6,286046998.0,N,1.4
1504812715.5,286046995.0,Y,0.0
1504812735.3,286047001.2,P,2.2
1504812755.1,286046998.6,N,1.8
1504812775.9,286046998.6,N,1.5
1504812795.7,286046998.6,N,1.4
1504812815.5,286046998.5,N,1.3
1504812835.4,286047000.8,N,1.4
1504812855.2,286047000.6,N,1.4
1504812875.1,286046998.6,N,1.3
1504812876.0,286046998.6,N,1.3
1504812895.8,286046998.5,N,1.2
1504812915.6,286046998.6,N,1.2
1504812935.5,286046998.7,N,1.1
1504812955.3,286046999.3,N,1.1
1504812975.2,286046999.1,N,1.1
1504812995.9,286046999.4,N,1.0
1504813015.7,286046998.9,N,1.0
1504813035.6,286046997.4,N,1.0
1504813055.4,286046997.1,N,1.1
1504813075.2,286046995.1,Y,0.0
1504813095.1,286046997.9,P,0.5
1504813096.0,286046997.9,P,0.4
1504813115.8,286046997.0,P,0.7
1504813135.7,286046997.8,Y,0.0
1504813155.5,286047000.7,P,1.4
1504813175.3,286046998.3,N,1.2
1504813195.2,286046998.3,N,1.1
1504813215.0,286046998.7,N,1.0
1504813215.9,286046998.7,N,0.9
1504813235.8,286046998.7,N,0.8
1504813255.6,286046998.8,N,0.8
1504813275.4,286046999.4,N,0.8
1504813295.3,286046999.4,N,0.7
1504813315.1,286046999.0,N,0.7
1504813335.9,286046999.3,N,0.7
1504813355.7,286046999.5,N,0.7
1504813375.5,286046999.3,N,0.7
1504813395.4,286046999.1,N,0.6
1504813415.2,286046999.6,N,0.6
1504813435.0,286046996.9,Y,0.0
1504813436.0,286046996.9,P,1.1
1504813455.8,286046999.2,N,1.0
1504813475.6,286046996.7,P,1.2
1504813495.5,286046999.6,N,1.2
1504813515.3,286046999.1,N,1.2
1504813535.1,286046999.4,N,1.1
1504813555.9,286046999.1,N,1.1
1504813575.7,286046998.7,N,1.0
1504813595.6,286046999.5,N,1.0
1504813615.4,286046996.8,Y,0.0
1504813635.2,286046998.7,P,0.0
1504813655.1,286046998.5,P,0.1
1504813656.0,286046998.5,P,0.1
1504813675.8,286046999.4,Y,0.0
1504813695.7,286047002.7,P,2.0
1504813715.5,286047002.5,N,1.9
1504813735.3,286047002.8,N,1.8
1504813755.2,286047000.0,N,1.7
1504813775.0,286046999.7,N,1.7
1504813775.9,286046999.7,N,1.6
1504813795.8,286046999.9,N,1.5
1504813815.6,286046999.7,N,1.5
1504813835.4,286047002.5,N,1.5
1504813855.3,286047002.0,N,1.5
1504813875.1,286047002.0,N,1.5
1504813895.8,286047002.3,N,1.4
1504813915.7,286047002.2,N,1.4
1504813935.5,286047002.6,N,1.4
1504813955.4,286047000.2,N,1.4
1504813975.2,286047000.1,N,1.4
1504813995.0,286047002.8,N,1.4
1504813995.9,286047002.8,N,1.4
1504814015.8,286047002.7,N,1.4
1504814035.6,286047002.7,N,1.4
1504814055.4,286047002.6,N,1.4
1504814075.3,286046999.7,N,1.4
1504814095.1,286047002.0,N,1.4
1504814115.9,286047000.5,N,1.4
1504814135.7,286047000.9,N,1.3
1504814155.5,286047000.7,N,1.3
1504814175.4,286046998.1,N,1.4
1504814195.2,286046998.1,N,1.5
1504814215.1,286046998.1,N,1.6
1504814216.0,286046998.1,N,1.6
1504814235.8,286047000.7,N,1.6
1504814255.6,286047001.2,N,1.6
1504814275.5,286047000.4,N,1.5
1504814295.3,286047000.4,N,1.5
1504814315.1,286047000.1,N,1.5
1504814335.9,286047001.0,N,1.5
1504814355.7,286046999.8,N,1.5
1504814375.6,286047000.5,N,1.5
1504814395.4,286047002.4,N,1.5
